sat.trackr.live / text

‹ back to catalog

STARLINK-30066

NORAD 56704 · 2023-067S

PAYLOAD ACTIVE UNKNOWN

§ Identity

Operator
Country
US
Launch date
2023-05-19
Launch site
AFETR
Launch vehicle
Mass (kg)
RCS (m²)

Purposes: comms

External: N2YO · Heavens-Above · Gunter

§ Orbital elements

Epoch: 2026-05-25T04:49:33.991968Z

Period
94.27 min
Inclination
43.0024°
Eccentricity
0.0001302
Mean motion
15.27577712 rev/d
Perigee alt
482.2 km
Apogee alt
483.9 km
Semi-major
6,861.2 km
B*
6.3397e-5
RAAN
198.7641°
Arg perigee
277.5897°
Mean anomaly
82.4807°
Rev number
16,740

§ Raw data

STARLINK-300661 56704U 23067S   26145.20108787  .00001483  00000+0  63397-4 0  99982 56704  43.0024 198.7641 0001302 277.5897  82.4807 15.27577712167405

JSON: /api/v1/satellites/56704 · /tle

For live sub-satellite position, see the globe view (requires WebGL).

§ Visibility from observer

Set your observer location to see the next 7 days of passes ≥ 10°. The values pass through the URL so the page stays shareable.

No JS? Fill the form by hand. The geolocation button needs JavaScript.